| time (UTC) | temp F | wind direction | speed MPH | gust MPH | rain 1hr in | rain 24hr in | rain mn in | humidity % | barometer mb |
| 20260507210804 | 67 | 281 | 11.0 | 20.0 | 0.00 | 0.01 | 0.00 | 30 | 1015.2 |
| 20260507210305 | 67 | 257 | 10.0 | 21.0 | 0.00 | 0.01 | 0.00 | 32 | 1015.2 |
| 20260507205804 | 67 | 256 | 13.0 | 21.0 | 0.00 | 0.01 | 0.00 | 32 | 1015.3 |
| 20260507205306 | 67 | 287 | 5.0 | 21.0 | 0.00 | 0.01 | 0.00 | 32 | 1015.4 |
| 20260507204804 | 67 | 284 | 11.0 | 23.0 | 0.00 | 0.01 | 0.00 | 33 | 1015.5 |
| 20260507204305 | 67 | 288 | 12.0 | 20.0 | 0.00 | 0.01 | 0.00 | 34 | 1015.5 |
| 20260507203804 | 67 | 261 | 9.0 | 18.0 | 0.00 | 0.01 | 0.00 | 34 | 1015.6 |
| 20260507203304 | 66 | 280 | 9.0 | 22.0 | 0.00 | 0.01 | 0.00 | 32 | 1015.7 |
| 20260507202805 | 66 | 288 | 11.0 | 20.0 | 0.00 | 0.01 | 0.00 | 36 | 1015.7 |
| 20260507202307 | 66 | 289 | 10.0 | 20.0 | 0.00 | 0.01 | 0.00 | 34 | 1015.9 |
| 20260507201804 | 66 | 278 | 9.0 | 21.0 | 0.00 | 0.01 | 0.00 | 34 | 1015.9 |
| 20260507201304 | 65 | 329 | 4.0 | 18.0 | 0.00 | 0.01 | 0.00 | 32 | 1016.0 |
| 20260507200805 | 65 | 254 | 7.0 | 20.0 | 0.00 | 0.01 | 0.00 | 34 | 1016.1 |
| 20260507200305 | 65 | 283 | 5.0 | 23.0 | 0.00 | 0.01 | 0.00 | 35 | 1016.2 |
| 20260507195805 | 65 | 280 | 5.0 | 13.0 | 0.00 | 0.01 | 0.00 | 36 | 1016.1 |
| 20260507195305 | 64 | 234 | 12.0 | 21.0 | 0.00 | 0.02 | 0.00 | 37 | 1016.2 |
| 20260507194804 | 64 | 294 | 13.0 | 25.0 | 0.00 | 0.02 | 0.00 | 38 | 1016.1 |
| 20260507193805 | 63 | 258 | 13.0 | 23.0 | 0.00 | 0.02 | 0.00 | 38 | 1016.3 |
| 20260507193304 | 63 | 263 | 11.0 | 25.0 | 0.00 | 0.02 | 0.00 | 39 | 1016.4 |
| 20260507191804 | 63 | 267 | 7.0 | 17.0 | 0.00 | 0.02 | 0.00 | 38 | 1016.5 |
| 20260507191304 | 62 | 294 | 12.0 | 23.0 | 0.00 | 0.02 | 0.00 | 41 | 1016.5 |
| 20260507190805 | 62 | 278 | 13.0 | 24.0 | 0.00 | 0.02 | 0.00 | 42 | 1016.4 |
| 20260507190304 | 62 | 263 | 12.0 | 25.0 | 0.00 | 0.02 | 0.00 | 41 | 1016.5 |
| 20260507185804 | 61 | 257 | 12.0 | 25.0 | 0.00 | 0.02 | 0.00 | 45 | 1016.5 |
| 20260507185306 | 61 | 277 | 10.0 | 24.0 | 0.00 | 0.02 | 0.00 | 43 | 1016.6 |
| 20260507184804 | 61 | 279 | 15.0 | 32.0 | 0.00 | 0.02 | 0.00 | 46 | 1016.5 |
| 20260507184304 | 60 | 262 | 13.0 | 28.0 | 0.00 | 0.02 | 0.00 | 47 | 1016.8 |
| 20260507183804 | 60 | 280 | 14.0 | 30.0 | 0.00 | 0.02 | 0.00 | 45 | 1016.7 |
| 20260507182805 | 60 | 276 | 15.0 | 31.0 | 0.00 | 0.02 | 0.00 | 48 | 1016.5 |
| 20260507182306 | 60 | 272 | 16.0 | 33.0 | 0.00 | 0.02 | 0.00 | 46 | 1016.7 |
| 20260507181804 | 59 | 283 | 14.0 | 29.0 | 0.00 | 0.02 | 0.00 | 47 | 1016.7 |
| 20260507180804 | 59 | 268 | 15.0 | 35.0 | 0.00 | 0.02 | 0.00 | 49 | 1016.6 |
| 20260507175306 | 58 | 267 | 16.0 | 29.0 | 0.00 | 0.02 | 0.00 | 50 | 1016.6 |
| 20260507174804 | 58 | 266 | 18.0 | 32.0 | 0.00 | 0.02 | 0.00 | 51 | 1016.7 |
| 20260507174304 | 58 | 265 | 18.0 | 31.0 | 0.00 | 0.02 | 0.00 | 51 | 1017.0 |
| 20260507173804 | 58 | 270 | 17.0 | 26.0 | 0.00 | 0.02 | 0.00 | 51 | 1017.1 |
| 20260507173305 | 58 | 274 | 14.0 | 31.0 | 0.00 | 0.02 | 0.00 | 50 | 1017.2 |
| 20260507172804 | 58 | 274 | 14.0 | 26.0 | 0.00 | 0.02 | 0.00 | 51 | 1017.1 |
| 20260507171804 | 57 | 282 | 11.0 | 32.0 | 0.00 | 0.02 | 0.00 | 51 | 1017.4 |
| 20260507171304 | 57 | 279 | 9.0 | 28.0 | 0.00 | 0.02 | 0.00 | 51 | 1017.6 |
| 20260507170804 | 57 | 286 | 13.0 | 22.0 | 0.00 | 0.02 | 0.00 | 52 | 1017.4 |
| 20260507170304 | 57 | 268 | 13.0 | 24.0 | 0.00 | 0.02 | 0.00 | 53 | 1017.6 |
| 20260507165804 | 56 | 295 | 12.0 | 24.0 | 0.00 | 0.02 | 0.00 | 52 | 1017.4 |
| 20260507165306 | 56 | 254 | 11.0 | 30.0 | 0.00 | 0.02 | 0.00 | 52 | 1017.5 |
| 20260507163803 | 56 | 260 | 13.0 | 24.0 | 0.00 | 0.02 | 0.00 | 54 | 1017.7 |
| 20260507162804 | 56 | 283 | 12.0 | 22.0 | 0.00 | 0.02 | 0.00 | 54 | 1017.6 |
| 20260507162307 | 56 | 290 | 12.0 | 24.0 | 0.00 | 0.02 | 0.00 | 54 | 1017.8 |
| 20260507161804 | 56 | 276 | 12.0 | 25.0 | 0.00 | 0.02 | 0.00 | 55 | 1017.9 |
| 20260507160805 | 55 | 269 | 10.0 | 22.0 | 0.00 | 0.02 | 0.00 | 55 | 1017.9 |
| 20260507155804 | 55 | 281 | 12.0 | 23.0 | 0.00 | 0.02 | 0.00 | 57 | 1017.9 |
| 20260507155306 | 55 | 271 | 5.0 | 18.0 | 0.00 | 0.02 | 0.00 | 57 | 1018.0 |
| 20260507154804 | 55 | 254 | 9.0 | 17.0 | 0.00 | 0.02 | 0.00 | 58 | 1018.2 |
| 20260507154304 | 54 | 252 | 6.0 | 16.0 | 0.00 | 0.02 | 0.00 | 57 | 1018.3 |
| 20260507153804 | 54 | 235 | 7.0 | 16.0 | 0.00 | 0.02 | 0.00 | 59 | 1018.3 |
| 20260507153305 | 54 | 267 | 6.0 | 21.0 | 0.00 | 0.02 | 0.00 | 60 | 1018.1 |
| 20260507152804 | 54 | 245 | 8.0 | 16.0 | 0.00 | 0.02 | 0.00 | 60 | 1018.2 |
| 20260507152306 | 54 | 253 | 9.0 | 18.0 | 0.00 | 0.02 | 0.00 | 60 | 1018.3 |
| 20260507151804 | 54 | 253 | 8.0 | 20.0 | 0.00 | 0.02 | 0.00 | 60 | 1018.2 |
| 20260507151305 | 54 | 293 | 5.0 | 12.0 | 0.00 | 0.02 | 0.00 | 61 | 1018.2 |
| 20260507150804 | 53 | 248 | 7.0 | 22.0 | 0.00 | 0.02 | 0.00 | 61 | 1017.9 |
| 20260507150305 | 53 | 238 | 8.0 | 24.0 | 0.00 | 0.02 | 0.00 | 62 | 1018.3 |
| 20260507145804 | 53 | 227 | 6.0 | 22.0 | 0.00 | 0.02 | 0.00 | 62 | 1018.4 |
| 20260507145307 | 53 | 281 | 9.0 | 21.0 | 0.00 | 0.02 | 0.00 | 62 | 1018.4 |
| 20260507144804 | 53 | 201 | 6.0 | 17.0 | 0.00 | 0.02 | 0.00 | 64 | 1018.4 |
| 20260507143805 | 53 | 279 | 6.0 | 17.0 | 0.00 | 0.02 | 0.00 | 64 | 1018.4 |
| 20260507143304 | 52 | 253 | 5.0 | 12.0 | 0.00 | 0.02 | 0.00 | 64 | 1018.2 |
| 20260507142804 | 52 | 268 | 5.0 | 14.0 | 0.00 | 0.02 | 0.00 | 64 | 1018.2 |
| 20260507142306 | 52 | 266 | 6.0 | 14.0 | 0.00 | 0.02 | 0.00 | 64 | 1018.0 |
| 20260507140804 | 52 | 235 | 6.0 | 17.0 | 0.00 | 0.02 | 0.00 | 65 | 1018.2 |
| 20260507140304 | 52 | 216 | 10.0 | 20.0 | 0.00 | 0.02 | 0.00 | 64 | 1017.9 |
| 20260507135805 | 53 | 263 | 12.0 | 24.0 | 0.00 | 0.02 | 0.00 | 64 | 1017.8 |
| 20260507135306 | 53 | 252 | 12.0 | 23.0 | 0.00 | 0.02 | 0.00 | 63 | 1017.8 |
| 20260507134804 | 53 | 262 | 12.0 | 25.0 | 0.00 | 0.02 | 0.00 | 64 | 1017.7 |
| 20260507134304 | 53 | 284 | 12.0 | 22.0 | 0.00 | 0.02 | 0.00 | 63 | 1017.7 |
| 20260507133304 | 53 | 262 | 11.0 | 22.0 | 0.00 | 0.02 | 0.00 | 64 | 1017.7 |
| 20260507132804 | 53 | 245 | 7.0 | 20.0 | 0.00 | 0.02 | 0.00 | 65 | 1017.8 |
| 20260507132307 | 53 | 271 | 7.0 | 18.0 | 0.00 | 0.02 | 0.00 | 64 | 1017.8 |
| 20260507131805 | 53 | 282 | 6.0 | 17.0 | 0.00 | 0.02 | 0.00 | 65 | 1017.7 |
| 20260507131303 | 53 | 267 | 9.0 | 18.0 | 0.00 | 0.02 | 0.00 | 65 | 1017.9 |
| 20260507130805 | 53 | 278 | 9.0 | 21.0 | 0.00 | 0.02 | 0.00 | 64 | 1017.7 |
| 20260507130304 | 53 | 249 | 7.0 | 20.0 | 0.00 | 0.02 | 0.00 | 64 | 1017.9 |
| 20260507125804 | 53 | 270 | 9.0 | 23.0 | 0.00 | 0.02 | 0.00 | 64 | 1017.7 |
| 20260507125306 | 53 | 269 | 8.0 | 15.0 | 0.00 | 0.02 | 0.00 | 64 | 1017.7 |
| 20260507124804 | 53 | 252 | 10.0 | 20.0 | 0.00 | 0.02 | 0.00 | 63 | 1017.6 |
| 20260507124305 | 54 | 272 | 9.0 | 20.0 | 0.00 | 0.02 | 0.00 | 64 | 1017.7 |
| 20260507123804 | 54 | 286 | 9.0 | 21.0 | 0.00 | 0.02 | 0.00 | 64 | 1017.6 |
| 20260507123304 | 54 | 263 | 7.0 | 20.0 | 0.00 | 0.02 | 0.00 | 64 | 1017.6 |
| 20260507122805 | 54 | 268 | 6.0 | 12.0 | 0.00 | 0.02 | 0.00 | 64 | 1017.6 |
| 20260507122307 | 54 | 273 | 7.0 | 16.0 | 0.00 | 0.02 | 0.00 | 64 | 1017.6 |
| 20260507121804 | 54 | 263 | 5.0 | 21.0 | 0.00 | 0.02 | 0.00 | 64 | 1017.7 |
| 20260507120804 | 54 | 264 | 6.0 | 17.0 | 0.00 | 0.02 | 0.00 | 64 | 1017.6 |
| 20260507120304 | 54 | 273 | 7.0 | 17.0 | 0.00 | 0.02 | 0.00 | 64 | 1017.5 |
| 20260507115803 | 54 | 296 | 7.0 | 18.0 | 0.00 | 0.02 | 0.00 | 64 | 1017.5 |
| 20260507115307 | 54 | 269 | 10.0 | 23.0 | 0.00 | 0.02 | 0.00 | 63 | 1017.6 |
| 20260507114802 | 54 | 279 | 6.0 | 15.0 | 0.00 | 0.02 | 0.00 | 64 | 1017.5 |
| 20260507114302 | 54 | 291 | 5.0 | 15.0 | 0.00 | 0.02 | 0.00 | 64 | 1017.5 |
| 20260507113802 | 54 | 288 | 7.0 | 18.0 | 0.00 | 0.02 | 0.00 | 63 | 1017.4 |
| 20260507113302 | 54 | 259 | 11.0 | 20.0 | 0.00 | 0.02 | 0.00 | 62 | 1017.4 |
| 20260507112306 | 54 | 276 | 8.0 | 24.0 | 0.00 | 0.02 | 0.00 | 64 | 1017.3 |
| 20260507111802 | 54 | 226 | 12.0 | 30.0 | 0.00 | 0.02 | 0.00 | 63 | 1017.3 |
| 20260507111302 | 54 | 230 | 9.0 | 21.0 | 0.00 | 0.02 | 0.00 | 63 | 1017.2 |
| 20260507110802 | 54 | 215 | 8.0 | 16.0 | 0.00 | 0.02 | 0.00 | 62 | 1017.0 |
| 20260507105802 | 54 | 303 | 7.0 | 21.0 | 0.00 | 0.02 | 0.00 | 64 | 1017.0 |
| 20260507105306 | 54 | 302 | 6.0 | 23.0 | 0.00 | 0.02 | 0.00 | 64 | 1016.9 |
| 20260507104802 | 54 | 193 | 6.0 | 22.0 | 0.00 | 0.02 | 0.00 | 64 | 1017.0 |
| 20260507104302 | 55 | 308 | 5.0 | 20.0 | 0.00 | 0.02 | 0.00 | 64 | 1016.9 |
| 20260507103802 | 55 | 247 | 12.0 | 28.0 | 0.00 | 0.02 | 0.00 | 61 | 1016.6 |
| 20260507103302 | 55 | 303 | 9.0 | 17.0 | 0.00 | 0.02 | 0.00 | 62 | 1016.5 |
| 20260507102802 | 55 | 266 | 9.0 | 16.0 | 0.00 | 0.02 | 0.00 | 63 | 1016.8 |
| 20260507102306 | 55 | 275 | 11.0 | 20.0 | 0.00 | 0.02 | 0.00 | 63 | 1016.8 |
| 20260507101802 | 55 | 271 | 12.0 | 20.0 | 0.00 | 0.02 | 0.00 | 62 | 1016.9 |
| 20260507101302 | 55 | 292 | 7.0 | 16.0 | 0.00 | 0.02 | 0.00 | 63 | 1016.9 |
| 20260507100802 | 55 | 244 | 9.0 | 21.0 | 0.00 | 0.02 | 0.00 | 62 | 1017.0 |
| 20260507100302 | 55 | 273 | 9.0 | 26.0 | 0.00 | 0.02 | 0.00 | 62 | 1016.8 |
| 20260507095802 | 56 | 261 | 14.0 | 23.0 | 0.00 | 0.02 | 0.00 | 60 | 1016.7 |
| 20260507095305 | 56 | 270 | 12.0 | 24.0 | 0.00 | 0.02 | 0.00 | 62 | 1016.7 |
| 20260507094802 | 56 | 278 | 10.0 | 23.0 | 0.00 | 0.02 | 0.00 | 61 | 1016.6 |
| 20260507094302 | 56 | 285 | 12.0 | 26.0 | 0.00 | 0.02 | 0.00 | 62 | 1016.7 |
| 20260507093802 | 56 | 250 | 11.0 | 22.0 | 0.00 | 0.02 | 0.00 | 61 | 1016.8 |
| 20260507092306 | 56 | 241 | 11.0 | 18.0 | 0.00 | 0.02 | 0.00 | 60 | 1016.7 |
| 20260507091802 | 56 | 288 | 7.0 | 20.0 | 0.00 | 0.02 | 0.00 | 62 | 1016.8 |
| 20260507091301 | 56 | 257 | 10.0 | 22.0 | 0.00 | 0.02 | 0.00 | 61 | 1016.8 |
| 20260507090802 | 57 | 232 | 10.0 | 26.0 | 0.00 | 0.02 | 0.00 | 61 | 1017.0 |
| 20260507090302 | 57 | 290 | 8.0 | 25.0 | 0.00 | 0.02 | 0.00 | 62 | 1016.9 |
| 20260507085802 | 57 | 274 | 7.0 | 22.0 | 0.00 | 0.02 | 0.00 | 61 | 1016.8 |
| 20260507085301 | 57 | 278 | 9.0 | 25.0 | 0.00 | 0.02 | 0.00 | 61 | 1016.8 |
| 20260507084802 | 57 | 247 | 9.0 | 20.0 | 0.00 | 0.02 | 0.00 | 61 | 1016.9 |
| 20260507084302 | 57 | 302 | 6.0 | 17.0 | 0.00 | 0.02 | 0.00 | 62 | 1017.0 |
| 20260507083802 | 57 | 286 | 5.0 | 17.0 | 0.00 | 0.02 | 0.00 | 62 | 1016.9 |
| 20260507083302 | 58 | 284 | 10.0 | 23.0 | 0.00 | 0.02 | 0.00 | 61 | 1016.9 |
| 20260507082802 | 57 | 252 | 10.0 | 23.0 | 0.00 | 0.02 | 0.00 | 60 | 1017.0 |
| 20260507081301 | 57 | 261 | 7.0 | 20.0 | 0.00 | 0.02 | 0.00 | 61 | 1016.8 |
| 20260507080802 | 57 | 230 | 9.0 | 24.0 | 0.00 | 0.02 | 0.00 | 62 | 1016.9 |
| 20260507080302 | 57 | 269 | 11.0 | 24.0 | 0.00 | 0.02 | 0.00 | 62 | 1016.8 |
| 20260507075802 | 57 | 275 | 7.0 | 21.0 | 0.00 | 0.02 | 0.00 | 63 | 1016.9 |
| 20260507075306 | 57 | 299 | 6.0 | 13.0 | 0.00 | 0.02 | 0.00 | 63 | 1016.9 |
| 20260507074802 | 57 | 264 | 10.0 | 25.0 | 0.00 | 0.02 | 0.00 | 62 | 1017.0 |
| 20260507074302 | 57 | 269 | 10.0 | 24.0 | 0.00 | 0.02 | 0.00 | 62 | 1017.0 |
| 20260507073802 | 57 | 283 | 8.0 | 16.0 | 0.00 | 0.02 | 0.00 | 62 | 1016.9 |
| 20260507072802 | 58 | 288 | 12.0 | 26.0 | 0.00 | 0.03 | 0.00 | 60 | 1016.8 |
| 20260507072306 | 58 | 263 | 11.0 | 24.0 | 0.00 | 0.03 | 0.00 | 61 | 1016.9 |
| 20260507071802 | 58 | 273 | 11.0 | 24.0 | 0.00 | 0.03 | 0.00 | 62 | 1016.9 |
| 20260507071302 | 58 | 252 | 12.0 | 22.0 | 0.00 | 0.03 | 0.00 | 60 | 1017.1 |
| 20260507070802 | 58 | 277 | 13.0 | 22.0 | 0.00 | 0.03 | 0.00 | 61 | 1017.0 |
| 20260507065802 | 58 | 275 | 14.0 | 28.0 | 0.00 | 0.03 | 0.03 | 59 | 1017.1 |
| 20260507065305 | 59 | 268 | 13.0 | 24.0 | 0.00 | 0.03 | 0.03 | 60 | 1017.1 |
| 20260507064802 | 59 | 273 | 13.0 | 25.0 | 0.00 | 0.03 | 0.03 | 59 | 1017.1 |
| 20260507064301 | 59 | 268 | 13.0 | 23.0 | 0.00 | 0.03 | 0.03 | 60 | 1017.2 |
| 20260507063302 | 59 | 269 | 11.0 | 23.0 | 0.00 | 0.03 | 0.03 | 60 | 1017.2 |
| 20260507062802 | 59 | 270 | 13.0 | 26.0 | 0.00 | 0.03 | 0.03 | 60 | 1017.1 |
| 20260507062305 | 59 | 260 | 11.0 | 23.0 | 0.00 | 0.03 | 0.03 | 62 | 1017.3 |
| 20260507061802 | 59 | 287 | 9.0 | 20.0 | 0.00 | 0.03 | 0.03 | 61 | 1017.3 |
| 20260507060301 | 60 | 261 | 12.0 | 22.0 | 0.00 | 0.03 | 0.03 | 61 | 1017.2 |
| 20260507055802 | 60 | 269 | 9.0 | 25.0 | 0.00 | 0.03 | 0.03 | 61 | 1017.2 |
| 20260507054802 | 60 | 281 | 11.0 | 23.0 | 0.00 | 0.03 | 0.03 | 60 | 1017.1 |
| 20260507054302 | 60 | 265 | 6.0 | 23.0 | 0.00 | 0.03 | 0.03 | 61 | 1017.3 |
| 20260507053802 | 60 | 260 | 9.0 | 23.0 | 0.00 | 0.03 | 0.03 | 60 | 1017.5 |
| 20260507053302 | 60 | 270 | 9.0 | 18.0 | 0.00 | 0.03 | 0.03 | 60 | 1017.3 |
| 20260507052301 | 61 | 301 | 6.0 | 23.0 | 0.00 | 0.03 | 0.03 | 60 | 1017.3 |
| 20260507051302 | 61 | 264 | 9.0 | 25.0 | 0.00 | 0.04 | 0.03 | 59 | 1017.3 |
| 20260507050802 | 61 | 276 | 9.0 | 22.0 | 0.00 | 0.04 | 0.03 | 59 | 1017.4 |
| 20260507050302 | 61 | 264 | 13.0 | 22.0 | 0.00 | 0.04 | 0.03 | 58 | 1017.2 |
| 20260507045302 | 62 | 255 | 10.0 | 24.0 | 0.00 | 0.04 | 0.03 | 58 | 1017.4 |
| 20260507044802 | 62 | 269 | 12.0 | 23.0 | 0.00 | 0.04 | 0.03 | 57 | 1017.3 |
| 20260507043801 | 62 | 274 | 12.0 | 26.0 | 0.00 | 0.04 | 0.03 | 58 | 1017.3 |
| 20260507042802 | 62 | 241 | 13.0 | 24.0 | 0.00 | 0.04 | 0.03 | 57 | 1017.2 |
| 20260507042302 | 62 | 290 | 9.0 | 21.0 | 0.00 | 0.04 | 0.03 | 57 | 1017.1 |
| 20260507041801 | 63 | 240 | 11.0 | 21.0 | 0.00 | 0.04 | 0.03 | 57 | 1017.2 |
| 20260507041302 | 63 | 231 | 9.0 | 18.0 | 0.00 | 0.04 | 0.03 | 56 | 1017.1 |
| 20260507040802 | 63 | 263 | 13.0 | 28.0 | 0.00 | 0.04 | 0.03 | 54 | 1017.1 |
| 20260507035802 | 63 | 265 | 11.0 | 24.0 | 0.00 | 0.04 | 0.03 | 57 | 1016.9 |
| 20260507035306 | 63 | 262 | 11.0 | 21.0 | 0.00 | 0.04 | 0.03 | 58 | 1016.9 |
| 20260507034802 | 63 | 276 | 10.0 | 21.0 | 0.00 | 0.04 | 0.03 | 58 | 1016.8 |
| 20260507033802 | 63 | 245 | 7.0 | 17.0 | 0.00 | 0.04 | 0.03 | 58 | 1016.8 |
| 20260507033302 | 63 | 259 | 10.0 | 23.0 | 0.00 | 0.04 | 0.03 | 56 | 1016.8 |
| 20260507032802 | 63 | 263 | 11.0 | 17.0 | 0.00 | 0.04 | 0.03 | 55 | 1016.8 |
| 20260507032301 | 63 | 269 | 12.0 | 26.0 | 0.00 | 0.04 | 0.03 | 53 | 1016.6 |
| 20260507031803 | 64 | 279 | 8.0 | 18.0 | 0.00 | 0.04 | 0.03 | 54 | 1016.6 |
| 20260507030802 | 64 | 265 | 9.0 | 24.0 | 0.00 | 0.05 | 0.03 | 54 | 1016.6 |
| 20260507030302 | 64 | 304 | 6.0 | 14.0 | 0.00 | 0.05 | 0.03 | 54 | 1016.5 |
| 20260507025301 | 64 | 283 | 9.0 | 24.0 | 0.00 | 0.05 | 0.03 | 52 | 1016.4 |
| 20260507024802 | 64 | 300 | 13.0 | 28.0 | 0.00 | 0.05 | 0.03 | 52 | 1016.3 |
| 20260507024302 | 65 | 284 | 13.0 | 30.0 | 0.00 | 0.05 | 0.03 | 52 | 1016.4 |
| 20260507023802 | 65 | 269 | 16.0 | 36.0 | 0.00 | 0.05 | 0.03 | 51 | 1016.3 |
| 20260507023302 | 65 | 271 | 14.0 | 29.0 | 0.00 | 0.05 | 0.03 | 51 | 1016.5 |
| 20260507022802 | 65 | 272 | 12.0 | 28.0 | 0.00 | 0.05 | 0.03 | 51 | 1016.3 |
| 20260507021801 | 65 | 267 | 17.0 | 30.0 | 0.00 | 0.05 | 0.03 | 51 | 1016.4 |
| 20260507021302 | 65 | 272 | 15.0 | 30.0 | 0.00 | 0.05 | 0.03 | 50 | 1016.3 |
| 20260507020802 | 65 | 278 | 13.0 | 24.0 | 0.00 | 0.05 | 0.03 | 50 | 1016.4 |
| 20260507020302 | 66 | 279 | 14.0 | 28.0 | 0.00 | 0.05 | 0.03 | 50 | 1016.3 |
| 20260507015305 | 66 | 276 | 14.0 | 29.0 | 0.00 | 0.05 | 0.03 | 49 | 1016.5 |
| 20260507014802 | 66 | 262 | 14.0 | 31.0 | 0.00 | 0.05 | 0.03 | 48 | 1016.4 |
| 20260507014301 | 66 | 269 | 13.0 | 33.0 | 0.00 | 0.05 | 0.03 | 48 | 1016.5 |
| 20260507013802 | 66 | 269 | 13.0 | 29.0 | 0.00 | 0.05 | 0.03 | 48 | 1016.5 |
| 20260507013301 | 66 | 291 | 13.0 | 31.0 | 0.00 | 0.05 | 0.03 | 48 | 1016.5 |
| 20260507012305 | 67 | 286 | 13.0 | 24.0 | 0.00 | 0.05 | 0.03 | 47 | 1016.6 |
| 20260507011802 | 67 | 262 | 11.0 | 24.0 | 0.00 | 0.05 | 0.03 | 47 | 1016.6 |
| 20260507010801 | 67 | 270 | 12.0 | 23.0 | 0.00 | 0.05 | 0.03 | 47 | 1016.6 |
| 20260507010301 | 67 | 258 | 10.0 | 21.0 | 0.00 | 0.05 | 0.03 | 47 | 1016.5 |
| 20260507005305 | 67 | 266 | 11.0 | 23.0 | 0.00 | 0.05 | 0.03 | 47 | 1016.6 |
| 20260507003804 | 67 | 271 | 12.0 | 25.0 | 0.00 | 0.05 | 0.03 | 47 | 1016.5 |
| 20260507003304 | 67 | 267 | 15.0 | 26.0 | 0.00 | 0.05 | 0.03 | 47 | 1016.5 |
| 20260507002804 | 67 | 296 | 12.0 | 24.0 | 0.00 | 0.05 | 0.03 | 46 | 1016.6 |
| 20260507002306 | 67 | 275 | 18.0 | 26.0 | 0.00 | 0.05 | 0.03 | 48 | 1016.5 |
| 20260507001803 | 67 | 266 | 12.0 | 22.0 | 0.00 | 0.06 | 0.03 | 47 | 1016.5 |
| 20260507001304 | 67 | 288 | 10.0 | 26.0 | 0.00 | 0.06 | 0.03 | 47 | 1016.4 |
| 20260507000803 | 67 | 265 | 14.0 | 28.0 | 0.00 | 0.06 | 0.03 | 47 | 1016.3 |
| 20260507000303 | 67 | 276 | 12.0 | 30.0 | 0.00 | 0.06 | 0.03 | 47 | 1016.3 |
| 20260506234803 | 65 | 282 | 13.0 | 28.0 | 0.00 | 0.06 | 0.03 | 48 | 1016.3 |
| 20260506234303 | 65 | 264 | 18.0 | 29.0 | 0.00 | 0.06 | 0.03 | 48 | 1016.2 |
| 20260506233804 | 65 | 270 | 15.0 | 28.0 | 0.00 | 0.05 | 0.03 | 49 | 1016.3 |
| 20260506233304 | 65 | 271 | 14.0 | 28.0 | 0.00 | 0.05 | 0.03 | 49 | 1016.3 |
| 20260506232804 | 65 | 282 | 16.0 | 29.0 | 0.00 | 0.05 | 0.03 | 49 | 1016.0 |
| 20260506232306 | 65 | 254 | 15.0 | 30.0 | 0.00 | 0.05 | 0.03 | 49 | 1016.3 |
| 20260506231804 | 65 | 273 | 17.0 | 28.0 | 0.00 | 0.05 | 0.03 | 50 | 1016.2 |
| 20260506231304 | 65 | 242 | 10.0 | 31.0 | 0.00 | 0.05 | 0.03 | 50 | 1016.3 |
| 20260506230303 | 65 | 247 | 17.0 | 31.0 | 0.00 | 0.06 | 0.03 | 51 | 1015.9 |
| 20260506225803 | 65 | 270 | 14.0 | 38.0 | 0.00 | 0.06 | 0.03 | 50 | 1015.9 |
| 20260506224304 | 65 | 286 | 17.0 | 28.0 | 0.00 | 0.05 | 0.03 | 50 | 1016.1 |
| 20260506223804 | 65 | 280 | 19.0 | 33.0 | 0.00 | 0.05 | 0.03 | 50 | 1016.1 |
| 20260506223304 | 65 | 271 | 15.0 | 33.0 | 0.00 | 0.05 | 0.03 | 50 | 1016.3 |
| 20260506222804 | 66 | 258 | 17.0 | 32.0 | 0.00 | 0.05 | 0.03 | 49 | 1016.3 |
| 20260506220803 | 66 | 278 | 12.0 | 30.0 | 0.00 | 0.06 | 0.03 | 50 | 1016.2 |
| 20260506220304 | 66 | 266 | 18.0 | 32.0 | 0.00 | 0.06 | 0.03 | 50 | 1016.1 |
| 20260506215804 | 66 | 274 | 18.0 | 41.0 | 0.00 | 0.06 | 0.03 | 49 | 1016.0 |
| 20260506215306 | 66 | 290 | 14.0 | 31.0 | 0.00 | 0.06 | 0.03 | 49 | 1016.0 |
| 20260506214803 | 66 | 267 | 17.0 | 35.0 | 0.00 | 0.06 | 0.03 | 50 | 1016.0 |
| 20260506214304 | 66 | 278 | 20.0 | 32.0 | 0.00 | 0.05 | 0.02 | 50 | 1016.1 |
| 20260506213804 | 66 | 261 | 20.0 | 32.0 | 0.00 | 0.05 | 0.02 | 50 | 1016.2 |
| 20260506213304 | 66 | 258 | 18.0 | 39.0 | 0.00 | 0.05 | 0.02 | 50 | 1016.3 |
| 20260506212804 | 66 | 277 | 18.0 | 35.0 | 0.00 | 0.05 | 0.02 | 50 | 1016.1 |
| 20260506211804 | 67 | 283 | 19.0 | 36.0 | 0.00 | 0.05 | 0.02 | 47 | 1016.2 |
| 20260506211304 | 67 | 291 | 11.0 | 29.0 | 0.00 | 0.05 | 0.02 | 46 | 1016.4 |